contact:dominique.lefevre@mio.osupytheas.fr, maurice.libes@osupytheas.fr, didier.mallarino@osupytheas.fr
Project:EMSO http://www.emso-fr.org/EMSO-France
Depth: 2436.0 m
Title:EMSO Ligure Ouest : Data MII capteur OXYGEN
DateTime,Latitude,Longitude,Optode-Type,Optode_Serial,Oxygen,Saturation_Oxygen,Temperature
DateTime,Latitude,Longitude,Optode-Type,Optode_Serial,µmol.l-1,%,degC
2017-10-01T00:02:09,42.805,6.029,4330,1995,200.916,61.441,13.286
2017-10-01T00:05:09,42.805,6.029,4330,1995,200.801,61.405,13.286
2017-10-01T00:08:09,42.805,6.029,4330,1995,200.816,61.410,13.286
2017-10-01T00:11:09,42.805,6.029,4330,1995,200.807,61.408,13.287
2017-10-01T00:14:09,42.805,6.029,4330,1995,200.816,61.410,13.286
2017-10-01T00:17:09,42.805,6.029,4330,1995,200.811,61.410,13.288
2017-10-01T00:20:09,42.805,6.029,4330,1995,200.806,61.408,13.287
2017-10-01T00:23:09,42.805,6.029,4330,1995,200.774,61.397,13.287
2017-10-01T00:26:09,42.805,6.029,4330,1995,200.641,61.357,13.287
2017-10-01T00:29:09,42.805,6.029,4330,1995,200.692,61.373,13.287
2017-10-01T00:32:09,42.805,6.029,4330,1995,200.639,61.358,13.288
2017-10-01T00:35:09,42.805,6.029,4330,1995,200.603,61.346,13.287
2017-10-01T00:38:09,42.805,6.029,4330,1995,200.716,61.381,13.287
2017-10-01T00:41:09,42.805,6.029,4330,1995,200.771,61.397,13.287
2017-10-01T00:44:09,42.805,6.029,4330,1995,200.746,61.392,13.289
2017-10-01T00:47:09,42.805,6.029,4330,1995,200.713,61.380,13.287
2017-10-01T00:50:09,42.805,6.029,4330,1995,200.636,61.361,13.291
2017-10-01T00:53:09,42.805,6.029,4330,1995,200.576,61.339,13.288
2017-10-01T00:56:09,42.805,6.029,4330,1995,200.533,61.327,13.289
2017-10-01T00:59:09,42.805,6.029,4330,1995,200.501,61.314,13.287
2017-10-01T01:02:09,42.805,6.029,4330,1995,200.679,61.369,13.287
2017-10-01T01:05:09,42.805,6.029,4330,1995,200.761,61.395,13.288
2017-10-01T01:08:09,42.805,6.029,4330,1995,200.754,61.392,13.287
2017-10-01T01:11:09,42.805,6.029,4330,1995,200.741,61.389,13.288
2017-10-01T01:14:09,42.805,6.029,4330,1995,200.709,61.378,13.287
2017-10-01T01:17:09,42.805,6.029,4330,1995,200.745,61.390,13.287
2017-10-01T01:20:09,42.805,6.029,4330,1995,200.619,61.351,13.287
2017-10-01T01:23:09,42.805,6.029,4330,1995,200.481,61.312,13.290
2017-10-01T01:26:09,42.805,6.029,4330,1995,200.204,61.225,13.288
2017-10-01T01:29:09,42.805,6.029,4330,1995,200.449,61.301,13.289
2017-10-01T01:32:09,42.805,6.029,4330,1995,200.509,61.320,13.289
2017-10-01T01:35:09,42.805,6.029,4330,1995,200.527,61.323,13.287
2017-10-01T01:38:09,42.805,6.029,4330,1995,200.636,61.358,13.288
2017-10-01T01:41:09,42.805,6.029,4330,1995,200.738,61.389,13.288
2017-10-01T01:44:09,42.805,6.029,4330,1995,200.617,61.352,13.289
2017-10-01T01:47:09,42.805,6.029,4330,1995,200.581,61.341,13.288
2017-10-01T01:50:09,42.805,6.029,4330,1995,200.483,61.310,13.288
2017-10-01T01:53:09,42.805,6.029,4330,1995,200.584,61.340,13.287
2017-10-01T01:56:09,42.805,6.029,4330,1995,200.465,61.305,13.288
2017-10-01T01:59:09,42.805,6.029,4330,1995,200.469,61.305,13.287
2017-10-01T02:02:09,42.805,6.029,4330,1995,200.490,61.312,13.287
2017-10-01T02:05:09,42.805,6.029,4330,1995,200.454,61.301,13.288
2017-10-01T02:08:09,42.805,6.029,4330,1995,200.563,61.334,13.287
2017-10-01T02:11:09,42.805,6.029,4330,1995,200.392,61.281,13.287
2017-10-01T02:14:09,42.805,6.029,4330,1995,200.505,61.316,13.287
2017-10-01T02:17:09,42.805,6.029,4330,1995,200.455,61.301,13.288
2017-10-01T02:20:09,42.805,6.029,4330,1995,200.539,61.326,13.287
2017-10-01T02:23:09,42.805,6.029,4330,1995,200.355,61.270,13.287
2017-10-01T02:26:09,42.805,6.029,4330,1995,200.393,61.282,13.287
2017-10-01T02:29:09,42.805,6.029,4330,1995,200.371,61.275,13.287
2017-10-01T02:32:09,42.805,6.029,4330,1995,200.362,61.273,13.287
2017-10-01T02:35:09,42.805,6.029,4330,1995,200.267,61.243,13.287
2017-10-01T02:38:09,42.805,6.029,4330,1995,200.193,61.220,13.286
2017-10-01T02:41:09,42.805,6.029,4330,1995,200.282,61.248,13.287
2017-10-01T02:44:09,42.805,6.029,4330,1995,200.291,61.251,13.288
2017-10-01T02:47:09,42.805,6.029,4330,1995,200.357,61.272,13.288
2017-10-01T02:50:09,42.805,6.029,4330,1995,200.303,61.254,13.287
2017-10-01T02:53:09,42.805,6.029,4330,1995,200.361,61.272,13.287
2017-10-01T02:56:09,42.805,6.029,4330,1995,200.375,61.276,13.287
2017-10-01T02:59:09,42.805,6.029,4330,1995,200.490,61.313,13.288
2017-10-01T03:02:09,42.805,6.029,4330,1995,200.554,61.332,13.288
2017-10-01T03:05:09,42.805,6.029,4330,1995,200.432,61.294,13.287
2017-10-01T03:08:09,42.805,6.029,4330,1995,200.500,61.315,13.287
2017-10-01T03:11:09,42.805,6.029,4330,1995,200.520,61.320,13.287
2017-10-01T03:14:09,42.805,6.029,4330,1995,200.542,61.328,13.288
2017-10-01T03:17:09,42.805,6.029,4330,1995,200.662,61.365,13.288
2017-10-01T03:20:09,42.805,6.029,4330,1995,200.686,61.370,13.286
2017-10-01T03:23:09,42.805,6.029,4330,1995,200.804,61.406,13.286
2017-10-01T03:26:09,42.805,6.029,4330,1995,200.738,61.388,13.288
2017-10-01T03:29:09,42.805,6.029,4330,1995,200.695,61.373,13.287
2017-10-01T03:32:09,42.805,6.029,4330,1995,200.702,61.375,13.287
2017-10-01T03:35:09,42.805,6.029,4330,1995,200.804,61.406,13.286
2017-10-01T03:38:09,42.805,6.029,4330,1995,200.719,61.381,13.287
2017-10-01T03:41:09,42.805,6.029,4330,1995,200.640,61.356,13.286
2017-10-01T03:44:09,42.805,6.029,4330,1995,200.652,61.360,13.286
2017-10-01T03:47:09,42.805,6.029,4330,1995,200.648,61.359,13.286
2017-10-01T03:50:09,42.805,6.029,4330,1995,200.674,61.367,13.287
2017-10-01T03:53:09,42.805,6.029,4330,1995,200.640,61.357,13.287
2017-10-01T03:56:09,42.805,6.029,4330,1995,200.782,61.400,13.286
2017-10-01T03:59:09,42.805,6.029,4330,1995,200.752,61.391,13.287
2017-10-01T04:02:09,42.805,6.029,4330,1995,200.831,61.415,13.287
2017-10-01T04:05:09,42.805,6.029,4330,1995,200.754,61.391,13.287
2017-10-01T04:08:09,42.805,6.029,4330,1995,200.761,61.394,13.287
2017-10-01T04:11:09,42.805,6.029,4330,1995,200.745,61.389,13.287
2017-10-01T04:14:09,42.805,6.029,4330,1995,200.792,61.403,13.287
2017-10-01T04:17:09,42.805,6.029,4330,1995,200.839,61.417,13.287
2017-10-01T04:20:09,42.805,6.029,4330,1995,200.921,61.441,13.286
2017-10-01T04:23:09,42.805,6.029,4330,1995,200.919,61.441,13.286
2017-10-01T04:26:09,42.805,6.029,4330,1995,200.877,61.429,13.287
2017-10-01T04:29:09,42.805,6.029,4330,1995,200.787,61.402,13.287
2017-10-01T04:32:09,42.805,6.029,4330,1995,200.726,61.384,13.287
2017-10-01T04:35:09,42.805,6.029,4330,1995,200.730,61.386,13.288
2017-10-01T04:38:09,42.805,6.029,4330,1995,200.579,61.339,13.287
2017-10-01T04:41:09,42.805,6.029,4330,1995,200.495,61.314,13.288
2017-10-01T04:44:09,42.805,6.029,4330,1995,200.485,61.311,13.288
2017-10-01T04:47:09,42.805,6.029,4330,1995,200.404,61.286,13.288
2017-10-01T04:50:09,42.805,6.029,4330,1995,200.305,61.256,13.288
2017-10-01T04:53:09,42.805,6.029,4330,1995,200.505,61.317,13.287
2017-10-01T04:56:09,42.805,6.029,4330,1995,200.581,61.340,13.288
2017-10-01T04:59:09,42.805,6.029,4330,1995,200.633,61.356,13.288
2017-10-01T05:02:09,42.805,6.029,4330,1995,200.527,61.323,13.287
2017-10-01T05:05:09,42.805,6.029,4330,1995,200.442,61.298,13.288
2017-10-01T05:08:09,42.805,6.029,4330,1995,200.451,61.300,13.288
2017-10-01T05:11:09,42.805,6.029,4330,1995,200.415,61.289,13.287
2017-10-01T05:14:09,42.805,6.029,4330,1995,200.312,61.259,13.288
2017-10-01T05:17:09,42.805,6.029,4330,1995,200.305,61.256,13.288
2017-10-01T05:20:09,42.805,6.029,4330,1995,200.246,61.239,13.288
2017-10-01T05:23:09,42.805,6.029,4330,1995,200.212,61.226,13.287
2017-10-01T05:26:09,42.805,6.029,4330,1995,200.097,61.196,13.291
2017-10-01T05:29:09,42.805,6.029,4330,1995,200.050,61.178,13.288
2017-10-01T05:32:09,42.805,6.029,4330,1995,200.105,61.194,13.287
2017-10-01T05:35:09,42.805,6.029,4330,1995,200.039,61.174,13.287
2017-10-01T05:38:09,42.805,6.029,4330,1995,200.002,61.165,13.290
2017-10-01T05:41:09,42.805,6.029,4330,1995,199.808,61.105,13.289
2017-10-01T05:44:09,42.805,6.029,4330,1995,199.816,61.107,13.288
2017-10-01T05:47:09,42.805,6.029,4330,1995,199.812,61.107,13.289
2017-10-01T05:50:09,42.805,6.029,4330,1995,199.684,61.066,13.288
2017-10-01T05:53:09,42.805,6.029,4330,1995,199.484,61.006,13.289
2017-10-01T05:56:09,42.805,6.029,4330,1995,199.523,61.017,13.288
2017-10-01T05:59:09,42.805,6.029,4330,1995,199.770,61.091,13.287
2017-10-01T06:02:09,42.805,6.029,4330,1995,199.970,61.153,13.288
2017-10-01T06:05:09,42.805,6.029,4330,1995,199.942,61.144,13.287
2017-10-01T06:08:09,42.805,6.029,4330,1995,200.037,61.173,13.287
2017-10-01T06:11:09,42.805,6.029,4330,1995,199.995,61.161,13.288
2017-10-01T06:14:09,42.805,6.029,4330,1995,199.984,61.157,13.287
2017-10-01T06:17:09,42.805,6.029,4330,1995,199.897,61.131,13.288
2017-10-01T06:20:09,42.805,6.029,4330,1995,199.895,61.129,13.287
2017-10-01T06:23:09,42.805,6.029,4330,1995,199.901,61.132,13.287
2017-10-01T06:26:09,42.805,6.029,4330,1995,199.772,61.092,13.287
2017-10-01T06:29:09,42.805,6.029,4330,1995,199.886,61.127,13.287
2017-10-01T06:32:09,42.805,6.029,4330,1995,199.751,61.086,13.287
2017-10-01T06:35:09,42.805,6.029,4330,1995,199.593,61.038,13.288
2017-10-01T06:38:09,42.805,6.029,4330,1995,199.580,61.034,13.288
2017-10-01T06:41:09,42.805,6.029,4330,1995,199.600,61.041,13.288
2017-10-01T06:44:09,42.805,6.029,4330,1995,199.436,60.991,13.288
2017-10-01T06:47:09,42.805,6.029,4330,1995,199.301,60.950,13.289
2017-10-01T06:50:09,42.805,6.029,4330,1995,199.365,60.968,13.288
2017-10-01T06:53:08,42.805,6.029,4330,1995,199.344,60.963,13.288
2017-10-01T06:56:09,42.805,6.029,4330,1995,199.399,60.979,13.288
2017-10-01T06:59:08,42.805,6.029,4330,1995,199.461,60.998,13.288
2017-10-01T07:02:08,42.805,6.029,4330,1995,199.452,60.995,13.288
2017-10-01T07:05:08,42.805,6.029,4330,1995,199.406,60.981,13.288
2017-10-01T07:08:08,42.805,6.029,4330,1995,199.508,61.010,13.286
2017-10-01T07:11:08,42.805,6.029,4330,1995,199.478,61.001,13.286
2017-10-01T07:14:08,42.805,6.029,4330,1995,199.842,61.112,13.286
2017-10-01T07:17:08,42.805,6.029,4330,1995,200.160,61.209,13.286
2017-10-01T07:20:08,42.805,6.029,4330,1995,200.293,61.250,13.286
2017-10-01T07:23:08,42.805,6.029,4330,1995,200.337,61.264,13.287
2017-10-01T07:26:08,42.805,6.029,4330,1995,200.301,61.253,13.286
2017-10-01T07:29:08,42.805,6.029,4330,1995,200.381,61.277,13.286
2017-10-01T07:32:08,42.805,6.029,4330,1995,200.409,61.285,13.286
2017-10-01T07:35:08,42.805,6.029,4330,1995,200.366,61.273,13.287
2017-10-01T07:38:08,42.805,6.029,4330,1995,200.441,61.296,13.287
2017-10-01T07:41:08,42.805,6.029,4330,1995,200.404,61.284,13.287
2017-10-01T07:44:08,42.805,6.029,4330,1995,200.410,61.286,13.287
2017-10-01T07:47:08,42.805,6.029,4330,1995,200.398,61.283,13.287
2017-10-01T07:50:08,42.805,6.029,4330,1995,200.476,61.306,13.287
2017-10-01T07:53:08,42.805,6.029,4330,1995,200.524,61.321,13.286
2017-10-01T07:56:08,42.805,6.029,4330,1995,200.590,61.341,13.287
2017-10-01T07:59:08,42.805,6.029,4330,1995,200.652,61.359,13.286
2017-10-01T08:02:08,42.805,6.029,4330,1995,200.618,61.350,13.286
2017-10-01T08:05:08,42.805,6.029,4330,1995,200.549,61.329,13.287
2017-10-01T08:08:08,42.805,6.029,4330,1995,200.675,61.367,13.287
2017-10-01T08:11:08,42.805,6.029,4330,1995,200.728,61.383,13.287
2017-10-01T08:14:08,42.805,6.029,4330,1995,200.729,61.383,13.286
2017-10-01T08:17:08,42.805,6.029,4330,1995,200.784,61.400,13.286
2017-10-01T08:20:08,42.805,6.029,4330,1995,200.792,61.402,13.286
2017-10-01T08:23:08,42.805,6.029,4330,1995,200.783,61.400,13.286
2017-10-01T08:26:08,42.805,6.029,4330,1995,200.829,61.413,13.286
2017-10-01T08:29:08,42.805,6.029,4330,1995,200.932,61.445,13.286
2017-10-01T08:32:08,42.805,6.029,4330,1995,200.921,61.442,13.286
2017-10-01T08:35:08,42.805,6.029,4330,1995,200.897,61.434,13.286
2017-10-01T08:38:08,42.805,6.029,4330,1995,200.930,61.444,13.286
2017-10-01T08:41:08,42.805,6.029,4330,1995,200.943,61.448,13.286
2017-10-01T08:44:08,42.805,6.029,4330,1995,200.969,61.456,13.286
2017-10-01T08:47:08,42.805,6.029,4330,1995,201.035,61.476,13.285
2017-10-01T08:50:08,42.805,6.029,4330,1995,201.027,61.473,13.285
2017-10-01T08:53:08,42.805,6.029,4330,1995,201.054,61.482,13.286
2017-10-01T08:56:08,42.805,6.029,4330,1995,201.028,61.474,13.285
2017-10-01T08:59:08,42.805,6.029,4330,1995,201.155,61.512,13.285
2017-10-01T09:02:08,42.805,6.029,4330,1995,201.176,61.519,13.285
2017-10-01T09:05:08,42.805,6.029,4330,1995,201.217,61.531,13.285
2017-10-01T09:08:08,42.805,6.029,4330,1995,201.180,61.520,13.285
2017-10-01T09:11:08,42.805,6.029,4330,1995,201.160,61.514,13.285
2017-10-01T09:14:08,42.805,6.029,4330,1995,201.160,61.514,13.285
2017-10-01T09:17:08,42.805,6.029,4330,1995,201.112,61.499,13.285
2017-10-01T09:20:08,42.805,6.029,4330,1995,201.018,61.470,13.285
2017-10-01T09:23:08,42.805,6.029,4330,1995,201.086,61.491,13.285
2017-10-01T09:26:08,42.805,6.029,4330,1995,201.207,61.528,13.285
2017-10-01T09:29:08,42.805,6.029,4330,1995,201.138,61.507,13.285
2017-10-01T09:32:08,42.805,6.029,4330,1995,201.085,61.491,13.285
2017-10-01T09:35:08,42.805,6.029,4330,1995,200.995,61.463,13.285
2017-10-01T09:38:08,42.805,6.029,4330,1995,201.044,61.478,13.285
2017-10-01T09:41:08,42.805,6.029,4330,1995,201.018,61.470,13.285
2017-10-01T09:44:08,42.805,6.029,4330,1995,200.967,61.455,13.285
2017-10-01T09:47:08,42.805,6.029,4330,1995,200.772,61.395,13.285
2017-10-01T09:50:08,42.805,6.029,4330,1995,200.914,61.439,13.285
2017-10-01T09:53:08,42.805,6.029,4330,1995,200.882,61.429,13.285
2017-10-01T09:56:08,42.805,6.029,4330,1995,200.868,61.425,13.285
2017-10-01T09:59:08,42.805,6.029,4330,1995,200.670,61.364,13.286
2017-10-01T10:02:08,42.805,6.029,4330,1995,200.718,61.379,13.285
2017-10-01T10:05:08,42.805,6.029,4330,1995,200.710,61.377,13.286
2017-10-01T10:08:08,42.805,6.029,4330,1995,200.782,61.398,13.285
2017-10-01T10:11:08,42.805,6.029,4330,1995,200.778,61.397,13.285
2017-10-01T10:14:08,42.805,6.029,4330,1995,200.619,61.349,13.286
2017-10-01T10:17:08,42.805,6.029,4330,1995,200.618,61.348,13.285
2017-10-01T10:20:08,42.805,6.029,4330,1995,200.684,61.368,13.285
2017-10-01T10:23:08,42.805,6.029,4330,1995,200.727,61.381,13.285
2017-10-01T10:26:08,42.805,6.029,4330,1995,200.695,61.372,13.285
2017-10-01T10:29:08,42.805,6.029,4330,1995,200.702,61.374,13.285
2017-10-01T10:32:08,42.805,6.029,4330,1995,200.800,61.404,13.285
2017-10-01T10:35:08,42.805,6.029,4330,1995,200.615,61.347,13.286
2017-10-01T10:38:08,42.805,6.029,4330,1995,200.707,61.375,13.285
2017-10-01T10:41:08,42.805,6.029,4330,1995,200.715,61.378,13.285
2017-10-01T10:44:08,42.805,6.029,4330,1995,200.630,61.352,13.285
2017-10-01T10:47:08,42.805,6.029,4330,1995,200.661,61.361,13.285
2017-10-01T10:50:08,42.805,6.029,4330,1995,200.600,61.343,13.285
2017-10-01T10:53:08,42.805,6.029,4330,1995,200.729,61.382,13.285
2017-10-01T10:56:08,42.805,6.029,4330,1995,200.739,61.385,13.285
2017-10-01T10:59:08,42.805,6.029,4330,1995,200.736,61.384,13.285
2017-10-01T11:02:08,42.805,6.029,4330,1995,200.718,61.379,13.285
2017-10-01T11:05:08,42.805,6.029,4330,1995,200.588,61.339,13.286
2017-10-01T11:08:08,42.805,6.029,4330,1995,200.456,61.299,13.286
2017-10-01T11:11:08,42.805,6.029,4330,1995,200.586,61.339,13.286
2017-10-01T11:14:08,42.805,6.029,4330,1995,200.653,61.359,13.285
2017-10-01T11:17:08,42.805,6.029,4330,1995,200.783,61.398,13.285
2017-10-01T11:20:08,42.805,6.029,4330,1995,200.734,61.383,13.285
2017-10-01T11:23:08,42.805,6.029,4330,1995,200.673,61.365,13.285
2017-10-01T11:26:08,42.805,6.029,4330,1995,200.692,61.371,13.285
2017-10-01T11:29:08,42.805,6.029,4330,1995,200.698,61.373,13.286
2017-10-01T11:32:08,42.805,6.029,4330,1995,200.741,61.386,13.285
2017-10-01T11:35:08,42.805,6.029,4330,1995,200.668,61.364,13.285
2017-10-01T11:38:08,42.805,6.029,4330,1995,200.706,61.375,13.285
2017-10-01T11:41:08,42.805,6.029,4330,1995,200.624,61.350,13.286
2017-10-01T11:44:08,42.805,6.029,4330,1995,200.546,61.327,13.286
2017-10-01T11:47:08,42.805,6.029,4330,1995,200.553,61.329,13.286
2017-10-01T11:50:08,42.805,6.029,4330,1995,200.525,61.320,13.285
2017-10-01T11:53:08,42.805,6.029,4330,1995,200.562,61.331,13.286
2017-10-01T11:56:08,42.805,6.029,4330,1995,200.511,61.316,13.286
2017-10-01T11:59:08,42.805,6.029,4330,1995,200.485,61.308,13.286
2017-10-01T12:02:08,42.805,6.029,4330,1995,200.556,61.329,13.286
2017-10-01T12:05:08,42.805,6.029,4330,1995,200.627,61.351,13.285
2017-10-01T12:08:08,42.805,6.029,4330,1995,200.749,61.388,13.286
2017-10-01T12:11:08,42.805,6.029,4330,1995,200.714,61.378,13.285
2017-10-01T12:14:08,42.805,6.029,4330,1995,200.713,61.377,13.285
2017-10-01T12:17:08,42.805,6.029,4330,1995,200.645,61.357,13.286
2017-10-01T12:20:08,42.805,6.029,4330,1995,200.625,61.350,13.286
2017-10-01T12:23:08,42.805,6.029,4330,1995,200.607,61.345,13.286
2017-10-01T12:26:08,42.805,6.029,4330,1995,200.568,61.333,13.286
2017-10-01T12:29:08,42.805,6.029,4330,1995,200.620,61.349,13.285
2017-10-01T12:32:08,42.805,6.029,4330,1995,200.598,61.342,13.285
2017-10-01T12:35:08,42.805,6.029,4330,1995,200.686,61.369,13.285
2017-10-01T12:38:08,42.805,6.029,4330,1995,200.718,61.379,13.285
2017-10-01T12:41:08,42.805,6.029,4330,1995,200.639,61.355,13.285
2017-10-01T12:44:08,42.805,6.029,4330,1995,200.727,61.381,13.285
2017-10-01T12:47:08,42.805,6.029,4330,1995,200.759,61.391,13.285
2017-10-01T12:50:08,42.805,6.029,4330,1995,200.759,61.391,13.285
2017-10-01T12:53:08,42.805,6.029,4330,1995,200.705,61.375,13.285
2017-10-01T12:56:08,42.805,6.029,4330,1995,200.692,61.371,13.285
2017-10-01T12:59:08,42.805,6.029,4330,1995,200.678,61.367,13.285
2017-10-01T13:02:08,42.805,6.029,4330,1995,200.693,61.371,13.285
2017-10-01T13:05:08,42.805,6.029,4330,1995,200.725,61.381,13.285
2017-10-01T13:08:08,42.805,6.029,4330,1995,200.832,61.414,13.285
2017-10-01T13:11:08,42.805,6.029,4330,1995,200.794,61.402,13.285
2017-10-01T13:14:08,42.805,6.029,4330,1995,200.644,61.356,13.285
2017-10-01T13:17:08,42.805,6.029,4330,1995,200.674,61.366,13.286
2017-10-01T13:20:08,42.805,6.029,4330,1995,200.643,61.356,13.285
2017-10-01T13:23:08,42.805,6.029,4330,1995,200.769,61.395,13.286
2017-10-01T13:26:08,42.805,6.029,4330,1995,200.878,61.428,13.286
2017-10-01T13:29:08,42.805,6.029,4330,1995,200.881,61.429,13.286
2017-10-01T13:32:08,42.805,6.029,4330,1995,200.908,61.437,13.286
2017-10-01T13:35:08,42.805,6.029,4330,1995,200.967,61.455,13.286
2017-10-01T13:38:08,42.805,6.029,4330,1995,200.887,61.431,13.285
2017-10-01T13:41:08,42.805,6.029,4330,1995,200.889,61.431,13.286
2017-10-01T13:44:08,42.805,6.029,4330,1995,200.935,61.446,13.286
2017-10-01T13:47:08,42.805,6.029,4330,1995,200.909,61.438,13.286
2017-10-01T13:50:08,42.805,6.029,4330,1995,200.893,61.433,13.286
2017-10-01T13:53:08,42.805,6.029,4330,1995,200.960,61.453,13.286
2017-10-01T13:56:08,42.805,6.029,4330,1995,200.969,61.456,13.286
2017-10-01T13:59:08,42.805,6.029,4330,1995,200.985,61.460,13.285
2017-10-01T14:02:08,42.805,6.029,4330,1995,201.055,61.482,13.286
2017-10-01T14:05:08,42.805,6.029,4330,1995,201.006,61.467,13.286
2017-10-01T14:08:08,42.805,6.029,4330,1995,200.972,61.456,13.285
2017-10-01T14:11:08,42.805,6.029,4330,1995,200.850,61.419,13.286
2017-10-01T14:14:08,42.805,6.029,4330,1995,200.790,61.401,13.285
2017-10-01T14:17:08,42.805,6.029,4330,1995,200.874,61.427,13.286
2017-10-01T14:20:08,42.805,6.029,4330,1995,200.866,61.424,13.286
2017-10-01T14:23:08,42.805,6.029,4330,1995,200.951,61.451,13.286
2017-10-01T14:26:08,42.805,6.029,4330,1995,200.971,61.456,13.285
2017-10-01T14:29:08,42.805,6.029,4330,1995,201.048,61.481,13.286
2017-10-01T14:32:08,42.805,6.029,4330,1995,201.037,61.476,13.285
2017-10-01T14:35:08,42.805,6.029,4330,1995,200.934,61.445,13.285
2017-10-01T14:38:08,42.805,6.029,4330,1995,201.015,61.470,13.285
2017-10-01T14:41:08,42.805,6.029,4330,1995,200.906,61.436,13.285
2017-10-01T14:44:08,42.805,6.029,4330,1995,200.891,61.432,13.286
2017-10-01T14:47:08,42.805,6.029,4330,1995,200.913,61.439,13.286
2017-10-01T14:50:08,42.805,6.029,4330,1995,200.951,61.451,13.286
2017-10-01T14:53:08,42.805,6.029,4330,1995,200.943,61.448,13.286
2017-10-01T14:56:08,42.805,6.029,4330,1995,200.965,61.456,13.286
2017-10-01T14:59:08,42.805,6.029,4330,1995,200.993,61.464,13.286
2017-10-01T15:02:08,42.805,6.029,4330,1995,200.930,61.445,13.286
2017-10-01T15:05:08,42.805,6.029,4330,1995,200.904,61.437,13.286
2017-10-01T15:08:08,42.805,6.029,4330,1995,200.900,61.436,13.286
2017-10-01T15:11:08,42.805,6.029,4330,1995,200.819,61.411,13.286
2017-10-01T15:14:08,42.805,6.029,4330,1995,200.762,61.393,13.286
2017-10-01T15:17:08,42.805,6.029,4330,1995,200.798,61.405,13.287
2017-10-01T15:20:08,42.805,6.029,4330,1995,200.769,61.396,13.287
2017-10-01T15:23:08,42.805,6.029,4330,1995,200.725,61.382,13.286
2017-10-01T15:26:08,42.805,6.029,4330,1995,200.687,61.370,13.286
2017-10-01T15:29:08,42.805,6.029,4330,1995,200.716,61.379,13.286
2017-10-01T15:32:08,42.805,6.029,4330,1995,200.704,61.376,13.287
2017-10-01T15:35:08,42.805,6.029,4330,1995,200.711,61.378,13.286
2017-10-01T15:38:08,42.805,6.029,4330,1995,200.657,61.362,13.286
2017-10-01T15:41:08,42.805,6.029,4330,1995,200.549,61.329,13.286
2017-10-01T15:44:08,42.805,6.029,4330,1995,200.563,61.333,13.287
2017-10-01T15:47:08,42.805,6.029,4330,1995,200.563,61.333,13.287
2017-10-01T15:50:08,42.805,6.029,4330,1995,200.583,61.340,13.287
2017-10-01T15:53:08,42.805,6.029,4330,1995,200.685,61.370,13.287
2017-10-01T15:56:08,42.805,6.029,4330,1995,200.693,61.373,13.287
2017-10-01T15:59:08,42.805,6.029,4330,1995,200.672,61.366,13.286
2017-10-01T16:02:08,42.805,6.029,4330,1995,200.633,61.355,13.287
2017-10-01T16:05:08,42.805,6.029,4330,1995,200.615,61.349,13.287
2017-10-01T16:08:08,42.805,6.029,4330,1995,200.554,61.331,13.287
2017-10-01T16:11:08,42.805,6.029,4330,1995,200.507,61.316,13.287
2017-10-01T16:14:08,42.805,6.029,4330,1995,200.369,61.275,13.287
2017-10-01T16:17:08,42.805,6.029,4330,1995,200.388,61.280,13.287
2017-10-01T16:20:08,42.805,6.029,4330,1995,200.435,61.294,13.287
2017-10-01T16:23:08,42.805,6.029,4330,1995,200.420,61.290,13.287
2017-10-01T16:26:08,42.805,6.029,4330,1995,200.297,61.252,13.287
2017-10-01T16:29:08,42.805,6.029,4330,1995,200.326,61.262,13.287
2017-10-01T16:32:08,42.805,6.029,4330,1995,200.359,61.272,13.287
2017-10-01T16:35:08,42.805,6.029,4330,1995,200.393,61.281,13.287
2017-10-01T16:38:08,42.805,6.029,4330,1995,200.325,61.261,13.287
2017-10-01T16:41:08,42.805,6.029,4330,1995,200.283,61.247,13.287
2017-10-01T16:44:08,42.805,6.029,4330,1995,200.181,61.216,13.287
2017-10-01T16:47:08,42.805,6.029,4330,1995,200.027,61.170,13.287
2017-10-01T16:50:08,42.805,6.029,4330,1995,199.915,61.135,13.287
2017-10-01T16:53:08,42.805,6.029,4330,1995,199.831,61.111,13.288
2017-10-01T16:56:08,42.805,6.029,4330,1995,200.036,61.172,13.286
2017-10-01T16:59:08,42.805,6.029,4330,1995,200.028,61.170,13.287
2017-10-01T17:02:08,42.805,6.029,4330,1995,200.043,61.174,13.287
2017-10-01T17:05:08,42.805,6.029,4330,1995,200.068,61.182,13.287
2017-10-01T17:08:08,42.805,6.029,4330,1995,199.984,61.156,13.287
2017-10-01T17:11:08,42.805,6.029,4330,1995,199.993,61.159,13.287
2017-10-01T17:14:08,42.805,6.029,4330,1995,199.928,61.139,13.287
2017-10-01T17:17:08,42.805,6.029,4330,1995,199.940,61.144,13.288
2017-10-01T17:20:08,42.805,6.029,4330,1995,199.804,61.101,13.287
2017-10-01T17:23:08,42.805,6.029,4330,1995,199.770,61.092,13.288
2017-10-01T17:26:08,42.805,6.029,4330,1995,199.785,61.096,13.287
2017-10-01T17:29:08,42.805,6.029,4330,1995,199.790,61.097,13.287
2017-10-01T17:32:08,42.805,6.029,4330,1995,199.844,61.114,13.287
2017-10-01T17:35:08,42.805,6.029,4330,1995,200.002,61.162,13.287
2017-10-01T17:38:08,42.805,6.029,4330,1995,200.011,61.165,13.287
2017-10-01T17:41:08,42.805,6.029,4330,1995,199.901,61.131,13.287
2017-10-01T17:44:08,42.805,6.029,4330,1995,199.850,61.115,13.287
2017-10-01T17:47:08,42.805,6.029,4330,1995,199.830,61.110,13.287
2017-10-01T17:50:08,42.805,6.029,4330,1995,199.742,61.082,13.287
2017-10-01T17:53:08,42.805,6.029,4330,1995,199.762,61.089,13.287
2017-10-01T17:56:08,42.805,6.029,4330,1995,199.720,61.078,13.289
2017-10-01T17:59:08,42.805,6.029,4330,1995,199.681,61.065,13.287
2017-10-01T18:02:08,42.805,6.029,4330,1995,199.726,61.079,13.288
2017-10-01T18:05:08,42.805,6.029,4330,1995,199.631,61.053,13.291
2017-10-01T18:08:08,42.805,6.029,4330,1995,199.378,60.972,13.287